Location: *
(43.0833°N, 13.0500°E)
Time: 15:16:37
(UTC+00:00)

CZ-4 R/B - Pass Details

Date: 15 November 2019
Orbit: 530 x 601 km, 97.7° (Epoch: 14 December)

Event Time Altitude Azimuth Distance (km) Brightness Sun altitude
Rises 18:28:48 0° 205° (SSW) 2,823 5.2 -30.0°
Reaches altitude 10° 18:31:36 10° 225° (SW) 1,918 4.5 -30.5°
Maximum altitude 18:34:24 17° 267° (W) 1,488 4.2 -31.0°
Drops below altitude 10° 18:37:11 10° 310° (NW) 1,905 4.7 -31.5°
Sets 18:39:58 0° 330° (NNW) 2,796 5.3 -32.0°
